This is the latest recevied weather packets stored in our database for station/object KI2K. If no packets are shown the sender has not sent any weather packets the latest 10 day(s).
| Time | Temp. | Humidity | Pressure | Rain* | Wind** | Luminosity | Snow |
|---|---|---|---|---|---|---|---|
| 1777908720 | 20.56° C | 65% | 1006.3 hPa | 0 mm | - | 763 W/m² | - |
| 1777908417 | 20° C | 65% | 1006.5 hPa | 0 mm | - | 688 W/m² | - |
| 1777908114 | 20° C | 65% | 1006.6 hPa | 0 mm | - | 821 W/m² | - |
| 1777907810 | 19.44° C | 66% | 1006.8 hPa | 0 mm | - | 540 W/m² | - |
| 1777907505 | 20° C | 65% | 1006.7 hPa | 0 mm | - | 612 W/m² | - |
| 1777907202 | 19.44° C | 65% | 1006.7 hPa | 0 mm | - | 753 W/m² | - |
| 1777906899 | 20° C | 65% | 1006.8 hPa | 0 mm | - | 368 W/m² | - |
| 1777906596 | 19.44° C | 66% | 1006.9 hPa | 0 mm | - | 445 W/m² | - |
| 1777906292 | 19.44° C | 66% | 1006.6 hPa | 0 mm | - | 343 W/m² | - |
| 1777905988 | 18.89° C | 67% | 1006.7 hPa | 0 mm | - | 301 W/m² | - |
| 1777905685 | 18.89° C | 69% | 1006.8 hPa | 0 mm | - | 223 W/m² | - |
| 1777905382 | 18.89° C | 70% | 1006.9 hPa | 0 mm | - | 217 W/m² | - |
| 1777905080 | 18.89° C | 70% | 1006.8 hPa | 0 mm | - | 331 W/m² | - |
| 1777904777 | 18.89° C | 70% | 1007.2 hPa | 0 mm | - | 298 W/m² | - |
| 1777904474 | 18.89° C | 70% | 1006.9 hPa | 0 mm | - | 253 W/m² | - |
| 1777904170 | 18.33° C | 71% | 1007.2 hPa | 0 mm | - | 390 W/m² | - |
| 1777903867 | 18.33° C | 71% | 1007.1 hPa | 0 mm | - | 400 W/m² | - |
| 1777903564 | 18.33° C | 71% | 1007.2 hPa | 0 mm | - | 364 W/m² | - |
| 1777903260 | 17.78° C | 73% | 1007 hPa | 0 mm | - | 339 W/m² | - |
| 1777902956 | 17.22° C | 74% | 1007.2 hPa | 0 mm | - | 246 W/m² | - |
| 1777902653 | 17.22° C | 74% | 1007.4 hPa | 0 mm | - | 319 W/m² | - |
| 1777902351 | 17.22° C | 74% | 1007.3 hPa | 0 mm | - | 284 W/m² | - |
| 1777902047 | 16.67° C | 75% | 1007.4 hPa | 0 mm | - | 285 W/m² | - |
| 1777901746 | 16.67° C | 75% | 1007.2 hPa | 0 mm | - | 286 W/m² | - |
| 1777901443 | 16.11° C | 76% | 1007.5 hPa | 0 mm | - | 293 W/m² | - |
* Rain latest hour (hover to see other rain measurements)
** Current wind speed in m/s (hover to see current wind gust speed)